Volver al catálogo

STARLINK-34785

ActivoComunicacionesVLEO
NORAD 65354·PAYLOAD·🇺🇸 United States

Lanzado Aug 28, 2025 desde Cape Canaveral Space Force Station

Loading…

Próximos Pases (próximas 24 horas)

TLE

ActualizadoSource: CelesTrak SupGP

Época: Sep 14, 2026, 22:54 UTC

1 65354C 25190D   26257.95465278 -.00012329  00000+0 -36433-3 0  2575
2 65354  53.1602   5.6714 0001162  72.7214 170.7664 15.34391452    17

Sigue STARLINK-34785 en tiempo real con AllMySat

Download on the App Store